Time,TemperatureF,DewpointF,PressureIn,WindDirection,WindDirectionDegrees,WindSpeedMPH,WindSpeedGustMPH,Humidity,HourlyPrecipIn,Conditions,Clouds,dailyrainin,SoftwareType,DateUTC
2013-01-19 00:10:00,30.4,30.0,30.49,SW,218,0.0,0.0,97,0.00,,,0.00,weatherlink.com 1.10,2013-01-19 06:10:00,
2013-01-19 00:25:00,30.5,30.0,30.49,SW,218,0.0,0.0,96,0.00,,,0.00,weatherlink.com 1.10,2013-01-19 06:25:00,
2013-01-19 00:40:00,30.2,29.0,30.48,SW,218,0.0,0.0,96,0.00,,,0.00,weatherlink.com 1.10,2013-01-19 06:40:00,
2013-01-19 00:55:00,29.8,29.0,30.48,SW,218,0.0,0.0,97,0.00,,,0.00,weatherlink.com 1.10,2013-01-19 06:55:00,
2013-01-19 01:10:00,30.3,29.0,30.48,SW,218,0.0,0.0,96,0.00,,,0.00,weatherlink.com 1.10,2013-01-19 07:10:00,
2013-01-19 01:26:00,30.4,29.0,30.48,SW,218,0.0,0.0,95,0.00,,,0.00,weatherlink.com 1.10,2013-01-19 07:26:00,
2013-01-19 01:41:00,30.3,29.0,30.49,SW,224,0.0,0.0,95,0.00,,,0.00,weatherlink.com 1.10,2013-01-19 07:41:00,
2013-01-19 01:56:00,30.0,29.0,30.49,SW,224,0.0,0.0,95,0.00,,,0.00,weatherlink.com 1.10,2013-01-19 07:56:00,
2013-01-19 02:11:00,30.2,29.0,30.50,SW,224,0.0,0.0,95,0.00,,,0.00,weatherlink.com 1.10,2013-01-19 08:11:00,
2013-01-19 02:26:00,30.2,29.0,30.50,NW,314,1.0,2.0,95,0.00,,,0.00,weatherlink.com 1.10,2013-01-19 08:26:00,
2013-01-19 02:41:00,29.9,29.0,30.50,NW,321,0.0,2.0,95,0.00,,,0.00,weatherlink.com 1.10,2013-01-19 08:41:00,
2013-01-19 02:56:00,29.7,29.0,30.50,NW,321,0.0,0.0,96,0.00,,,0.00,weatherlink.com 1.10,2013-01-19 08:56:00,
2013-01-19 03:11:00,28.2,27.0,30.50,NW,319,0.0,0.0,96,0.00,,,0.00,weatherlink.com 1.10,2013-01-19 09:11:00,
2013-01-19 03:27:00,27.5,27.0,30.50,NW,319,0.0,0.0,96,0.00,,,0.00,weatherlink.com 1.10,2013-01-19 09:27:00,
2013-01-19 03:41:00,27.2,27.0,30.50,NW,319,0.0,0.0,97,0.00,,,0.00,weatherlink.com 1.10,2013-01-19 09:41:00,
2013-01-19 04:11:00,26.7,26.0,30.49,NW,321,0.0,0.0,98,0.00,,,0.00,weatherlink.com 1.10,2013-01-19 10:11:00,
2013-01-19 04:26:00,27.0,27.0,30.49,NW,320,0.0,0.0,98,0.00,,,0.00,weatherlink.com 1.10,2013-01-19 10:26:00,
2013-01-19 04:41:00,27.0,27.0,30.49,NW,321,0.0,0.0,98,0.00,,,0.00,weatherlink.com 1.10,2013-01-19 10:41:00,
2013-01-19 04:56:00,26.8,26.0,30.48,NW,320,0.0,0.0,98,0.00,,,0.00,weatherlink.com 1.10,2013-01-19 10:56:00,
2013-01-19 05:11:00,26.5,26.0,30.49,West,271,0.0,1.0,98,0.00,,,0.00,weatherlink.com 1.10,2013-01-19 11:11:00,
2013-01-19 06:56:00,25.4,25.0,30.49,SSE,150,0.0,0.0,99,0.00,,,0.00,weatherlink.com 1.10,2013-01-19 12:56:00,
2013-01-19 07:11:00,26.0,26.0,30.49,SSE,150,0.0,0.0,99,0.00,,,0.00,weatherlink.com 1.10,2013-01-19 13:11:00,
2013-01-19 07:26:00,27.5,27.0,30.49,SSE,150,0.0,0.0,99,0.00,,,0.00,weatherlink.com 1.10,2013-01-19 13:26:00,
2013-01-19 07:41:00,29.1,29.0,30.50,SSE,153,0.0,0.0,98,0.00,,,0.00,weatherlink.com 1.10,2013-01-19 13:41:00,
2013-01-19 08:11:00,33.7,33.0,30.50,SSW,208,0.0,0.0,97,0.00,,,0.00,weatherlink.com 1.10,2013-01-19 14:11:00,
2013-01-19 08:26:00,36.8,35.0,30.50,SE,132,2.0,4.0,92,0.00,,,0.00,weatherlink.com 1.10,2013-01-19 14:26:00,
2013-01-19 08:41:00,39.5,34.0,30.50,SE,140,1.0,4.0,81,0.00,,,0.00,weatherlink.com 1.10,2013-01-19 14:41:00,
2013-01-19 08:56:00,41.2,32.0,30.50,ESE,113,3.0,6.0,70,0.00,,,0.00,weatherlink.com 1.10,2013-01-19 14:56:00,
2013-01-19 09:12:00,42.7,34.0,30.51,SE,139,1.0,8.0,70,0.00,,,0.00,weatherlink.com 1.10,2013-01-19 15:12:00,
2013-01-19 09:27:00,44.2,33.0,30.51,SW,228,3.0,5.0,65,0.00,,,0.00,weatherlink.com 1.10,2013-01-19 15:27:00,
2013-01-19 09:42:00,44.9,33.0,30.51,SE,145,1.0,6.0,64,0.00,,,0.00,weatherlink.com 1.10,2013-01-19 15:42:00,
2013-01-19 09:57:00,45.2,32.0,30.51,SSE,165,5.0,9.0,61,0.00,,,0.00,weatherlink.com 1.10,2013-01-19 15:57:00,
2013-01-19 10:12:00,46.2,33.0,30.50,SSE,156,4.0,8.0,61,0.00,,,0.00,weatherlink.com 1.10,2013-01-19 16:12:00,
2013-01-19 10:27:00,47.5,31.0,30.49,SSW,193,1.0,5.0,54,0.00,,,0.00,weatherlink.com 1.10,2013-01-19 16:27:00,
2013-01-19 10:42:00,48.3,32.0,30.48,SSE,155,0.0,5.0,54,0.00,,,0.00,weatherlink.com 1.10,2013-01-19 16:42:00,
2013-01-19 10:57:00,49.1,30.0,30.47,SSW,200,3.0,7.0,48,0.00,,,0.00,weatherlink.com 1.10,2013-01-19 16:57:00,
2013-01-19 11:12:00,50.2,31.0,30.46,WNW,286,1.0,6.0,48,0.00,,,0.00,weatherlink.com 1.10,2013-01-19 17:12:00,
2013-01-19 11:27:00,50.4,31.0,30.44,SW,219,2.0,7.0,47,0.00,,,0.00,weatherlink.com 1.10,2013-01-19 17:27:00,
2013-01-19 12:12:00,51.8,34.0,30.41,SSW,196,2.0,6.0,51,0.00,,,0.00,weatherlink.com 1.10,2013-01-19 18:12:00,
2013-01-19 12:27:00,52.1,32.0,30.40,West,259,4.0,8.0,47,0.00,,,0.00,weatherlink.com 1.10,2013-01-19 18:27:00,
2013-01-19 13:12:00,54.2,35.0,30.37,WNW,284,5.0,7.0,48,0.00,,,0.00,weatherlink.com 1.10,2013-01-19 19:12:00,
2013-01-19 13:27:00,54.5,33.0,30.36,SSE,152,4.0,5.0,44,0.00,,,0.00,weatherlink.com 1.10,2013-01-19 19:27:00,
2013-01-19 13:43:00,55.3,33.0,30.36,SW,219,3.0,6.0,43,0.00,,,0.00,weatherlink.com 1.10,2013-01-19 19:43:00,
2013-01-19 13:58:00,55.6,32.0,30.35,SSW,207,1.0,7.0,41,0.00,,,0.00,weatherlink.com 1.10,2013-01-19 19:58:00,
2013-01-19 14:28:00,55.8,33.0,30.34,SW,231,1.0,7.0,42,0.00,,,0.00,weatherlink.com 1.10,2013-01-19 20:28:00,
2013-01-19 14:43:00,56.3,33.0,30.34,South,173,1.0,5.0,42,0.00,,,0.00,weatherlink.com 1.10,2013-01-19 20:43:00,
2013-01-19 14:58:00,57.0,35.0,30.33,SW,225,2.0,5.0,44,0.00,,,0.00,weatherlink.com 1.10,2013-01-19 20:58:00,
2013-01-19 15:13:00,57.3,35.0,30.33,SE,143,1.0,7.0,44,0.00,,,0.00,weatherlink.com 1.10,2013-01-19 21:13:00,
2013-01-19 15:58:00,55.0,31.0,30.32,South,187,2.0,5.0,41,0.00,,,0.00,weatherlink.com 1.10,2013-01-19 21:58:00,
2013-01-19 16:13:00,54.2,34.0,30.32,SSE,153,0.0,4.0,46,0.00,,,0.00,weatherlink.com 1.10,2013-01-19 22:13:00,
2013-01-19 16:28:00,53.2,34.0,30.32,South,174,0.0,5.0,48,0.00,,,0.00,weatherlink.com 1.10,2013-01-19 22:28:00,
2013-01-19 16:43:00,51.5,32.0,30.32,SE,143,0.0,2.0,48,0.00,,,0.00,weatherlink.com 1.10,2013-01-19 22:43:00,
2013-01-19 16:58:00,48.7,32.0,30.32,SSW,210,0.0,0.0,52,0.00,,,0.00,weatherlink.com 1.10,2013-01-19 22:58:00,
2013-01-19 17:28:00,44.9,31.0,30.32,SSW,210,0.0,0.0,58,0.00,,,0.00,weatherlink.com 1.10,2013-01-19 23:28:00,
2013-01-19 18:13:00,40.8,32.0,30.33,SSW,210,0.0,0.0,72,0.00,,,0.00,weatherlink.com 1.10,2013-01-20 00:13:00,
2013-01-19 18:28:00,39.4,32.0,30.33,SSW,210,0.0,0.0,76,0.00,,,0.00,weatherlink.com 1.10,2013-01-20 00:28:00,
2013-01-19 18:43:00,38.3,33.0,30.33,SSW,210,0.0,0.0,81,0.00,,,0.00,weatherlink.com 1.10,2013-01-20 00:43:00,
2013-01-19 18:58:00,37.7,32.0,30.33,SSW,210,0.0,0.0,79,0.00,,,0.00,weatherlink.com 1.10,2013-01-20 00:58:00,
2013-01-19 19:28:00,36.4,32.0,30.33,SSW,210,0.0,0.0,85,0.00,,,0.00,weatherlink.com 1.10,2013-01-20 01:28:00,
2013-01-19 19:43:00,36.1,32.0,30.33,SSW,210,0.0,0.0,84,0.00,,,0.00,weatherlink.com 1.10,2013-01-20 01:43:00,
2013-01-19 19:58:00,35.5,32.0,30.32,SSW,210,0.0,1.0,88,0.00,,,0.00,weatherlink.com 1.10,2013-01-20 01:58:00,
2013-01-19 20:43:00,34.0,32.0,30.32,SSW,210,0.0,0.0,93,0.00,,,0.00,weatherlink.com 1.10,2013-01-20 02:43:00,
2013-01-19 20:58:00,33.4,31.0,30.32,SSW,210,0.0,0.0,91,0.00,,,0.00,weatherlink.com 1.10,2013-01-20 02:58:00,
2013-01-19 21:13:00,35.6,33.0,30.32,SSW,210,0.0,0.0,89,0.00,,,0.00,weatherlink.com 1.10,2013-01-20 03:13:00,
2013-01-19 21:28:00,36.7,33.0,30.32,SSW,210,0.0,1.0,85,0.00,,,0.00,weatherlink.com 1.10,2013-01-20 03:28:00,
2013-01-19 21:43:00,35.9,32.0,30.32,SSW,210,0.0,1.0,86,0.00,,,0.00,weatherlink.com 1.10,2013-01-20 03:43:00,
2013-01-19 21:58:00,34.8,32.0,30.31,SSW,210,0.0,1.0,89,0.00,,,0.00,weatherlink.com 1.10,2013-01-20 03:58:00,
2013-01-19 22:43:00,33.5,31.0,30.31,SSW,210,0.0,0.0,91,0.00,,,0.00,weatherlink.com 1.10,2013-01-20 04:43:00,
2013-01-19 23:13:00,31.9,30.0,30.31,SSW,210,0.0,0.0,94,0.00,,,0.00,weatherlink.com 1.10,2013-01-20 05:13:00,
2013-01-19 23:28:00,32.6,32.0,30.31,SSW,210,0.0,1.0,96,0.00,,,0.00,weatherlink.com 1.10,2013-01-20 05:28:00,
2013-01-19 23:43:00,32.7,31.0,30.31,SSW,210,0.0,0.0,93,0.00,,,0.00,weatherlink.com 1.10,2013-01-20 05:43:00,
2013-01-19 23:58:00,32.4,31.0,30.30,SSW,210,0.0,0.0,94,0.00,,,0.00,weatherlink.com 1.10,2013-01-20 05:58:00,